Date String (YYYY-MM-DD hh:mm:ss) UTC,Instrument flags,Ambient pressure (hPa),Sample flow (lpm),Bypass flow (lpm),Sample temperature (°C),Ambient temperature (°C),ASC tube jacket temperature (°C),LED temperature (°C),Box temperature (°C),Sample RH (%),Span deviation,Mass concentration (μg/m³),Mass concentration (μg/m³),Mass concentration (μg/m³)
DateTimeUTC,F1_M11,P_M11,Q1_M11,Q2_M11,T1_M11,T2_M11,T3_M11,T4_M11,T5_M11,U1_M11,ZSPAN_M11,X0_M11,X2_M11,X1_M11
2022-06-28 21:00:00,,0830.5,5.01,0.00,29.1,27.9,00.0,37.8,31.0,15.1,0000.0,0007.55,0003.68,0003.28
2022-06-28 21:01:00,,0830.5,4.99,0.00,29.1,28.1,00.0,37.8,31.1,14.9,0000.0,0007.64,0003.68,0003.29
2022-06-28 21:02:00,,0830.5,5.01,0.00,29.1,28.0,00.0,37.8,31.1,15.0,0000.0,0007.71,0003.69,0003.29
2022-06-28 21:03:00,,0830.5,5.00,0.00,29.1,27.4,00.0,37.8,30.9,15.0,0000.0,0007.92,0003.66,0003.29
2022-06-28 21:04:00,,0830.5,4.99,0.00,29.0,27.0,00.0,37.7,30.8,15.1,0000.0,0007.79,0003.66,0003.28
2022-06-28 21:05:00,,0830.5,5.01,0.00,29.0,27.0,00.0,37.7,30.8,14.6,0000.0,0007.75,0003.67,0003.28
2022-06-28 21:06:00,,0830.5,5.00,0.00,29.0,27.1,00.0,37.7,30.8,15.2,0000.0,0007.70,0003.66,0003.27
2022-06-28 21:07:00,,0830.5,4.99,0.00,29.0,27.3,00.0,37.7,30.9,15.5,0000.0,0007.75,0003.67,0003.27
2022-06-28 21:08:00,,0830.4,5.00,0.00,29.0,27.5,00.0,37.7,30.9,15.3,0000.0,0007.71,0003.67,0003.28
2022-06-28 21:09:00,,0830.5,5.00,0.00,29.0,27.7,00.0,37.8,31.0,14.2,0000.0,0007.76,0003.70,0003.28
2022-06-28 21:10:00,,0830.4,4.99,0.00,29.1,27.9,00.0,37.8,31.1,14.4,0000.0,0007.31,0003.71,0003.30
2022-06-28 21:11:00,,0830.4,5.01,0.00,29.1,28.1,00.0,37.8,31.1,14.3,0000.0,0006.84,0003.73,0003.31
2022-06-28 21:12:00,,0830.4,4.99,0.00,29.1,28.2,00.0,37.8,31.2,14.2,0000.0,0006.73,0003.74,0003.32
2022-06-28 21:13:00,,0830.4,5.00,0.00,29.1,27.5,00.0,37.8,31.0,14.7,0000.0,0007.21,0003.77,0003.32
2022-06-28 21:14:00,,0830.4,5.00,0.00,29.1,27.0,00.0,37.7,30.9,14.9,0000.0,0007.34,0003.76,0003.32
2022-06-28 21:15:00,,0830.4,5.00,0.00,29.0,27.0,00.0,37.7,30.8,15.1,0000.0,0007.41,0003.75,0003.33
2022-06-28 21:16:00,,0830.4,5.01,0.00,29.0,27.1,00.0,37.7,30.8,14.6,0000.0,0008.12,0003.76,0003.34
2022-06-28 21:17:00,,0830.4,5.00,0.00,29.0,27.3,00.0,37.7,30.9,14.4,0000.0,0008.32,0003.83,0003.35
2022-06-28 21:18:00,,0830.4,5.00,0.00,29.0,27.5,00.0,37.8,30.9,14.3,0000.0,0008.32,0003.84,0003.36
2022-06-28 21:19:00,,0830.4,4.99,0.00,29.0,27.7,00.0,37.8,31.0,14.1,0000.0,0008.48,0003.85,0003.37
2022-06-28 21:20:00,,0830.4,5.00,0.00,29.1,28.0,00.0,37.8,31.1,14.6,0000.0,0009.22,0003.87,0003.38
2022-06-28 21:21:00,,0830.4,5.00,0.00,29.1,28.1,00.0,37.8,31.2,14.6,0000.0,0009.23,0003.87,0003.37
2022-06-28 21:22:00,,0830.4,4.99,0.00,29.2,27.9,00.0,37.8,31.1,14.4,0000.0,0009.25,0003.88,0003.38
2022-06-28 21:23:00,,0830.4,4.99,0.00,29.1,27.2,00.0,37.8,30.9,14.5,0000.0,0009.26,0003.89,0003.38
2022-06-28 21:24:00,,0830.4,5.00,0.00,29.0,27.0,00.0,37.7,30.8,14.8,0000.0,0008.83,0003.86,0003.38
2022-06-28 21:25:00,,0830.4,5.00,0.00,29.0,27.0,00.0,37.7,30.8,15.0,0000.0,0008.75,0003.85,0003.39
2022-06-28 21:26:00,,0830.4,4.99,0.00,29.0,27.2,00.0,37.7,30.8,14.9,0000.0,0009.12,0003.86,0003.39
2022-06-28 21:27:00,,0830.4,5.01,0.00,29.0,27.4,00.0,37.8,30.9,15.7,0000.0,0008.54,0003.85,0003.39
2022-06-28 21:28:00,,0830.4,5.00,0.00,29.0,27.6,00.0,37.8,31.0,16.1,0000.0,0008.89,0003.79,0003.38
2022-06-28 21:29:00,,0830.4,5.00,0.00,29.1,27.8,00.0,37.8,31.0,16.1,0000.0,0009.30,0003.78,0003.38
2022-06-28 21:30:00,,0830.4,4.99,0.00,29.1,28.0,00.0,37.8,31.1,16.0,0000.0,0009.37,0003.78,0003.38
2022-06-28 21:31:00,,0830.4,5.00,0.00,29.1,27.9,00.0,37.8,31.1,15.5,0000.0,0008.68,0003.78,0003.38
2022-06-28 21:32:00,,0830.5,5.01,0.00,29.1,27.2,00.0,37.8,30.9,16.1,0000.0,0009.25,0003.79,0003.40
2022-06-28 21:33:00,,0830.4,5.01,0.00,29.0,26.9,00.0,37.7,30.8,15.9,0000.0,0009.47,0003.80,0003.39
2022-06-28 21:34:00,,0830.4,5.00,0.00,29.0,27.0,00.0,37.7,30.8,15.8,0000.0,0009.68,0003.85,0003.40
2022-06-28 21:35:00,,0830.4,5.00,0.00,29.0,27.1,00.0,37.7,30.8,15.6,0000.0,0009.82,0003.87,0003.41
2022-06-28 21:36:00,,0830.4,4.98,0.00,29.0,27.3,00.0,37.7,30.9,15.6,0000.0,0009.49,0003.89,0003.42
2022-06-28 21:37:00,,0830.5,5.01,0.00,29.0,27.5,00.0,37.7,30.9,15.3,0000.0,0009.11,0003.90,0003.43
2022-06-28 21:38:00,,0830.4,5.01,0.00,29.0,27.8,00.0,37.8,31.0,15.1,0000.0,0009.03,0003.92,0003.44
2022-06-28 21:39:00,,0830.4,5.01,0.00,29.1,28.0,00.0,37.8,31.1,15.3,0000.0,0009.00,0003.93,0003.46
2022-06-28 21:40:00,,0830.4,5.00,0.00,29.1,28.2,00.0,37.8,31.2,15.5,0000.0,0008.66,0003.95,0003.46
2022-06-28 21:41:00,,0830.3,5.00,0.00,29.1,27.7,00.0,37.8,31.0,15.1,0000.0,0008.58,0003.97,0003.48
2022-06-28 21:42:00,,0830.3,4.99,0.00,29.1,27.1,00.0,37.7,30.9,15.8,0000.0,0008.61,0003.96,0003.47
2022-06-28 21:43:00,,0830.3,4.99,0.00,29.0,27.0,00.0,37.7,30.8,15.3,0000.0,0008.08,0003.97,0003.47
2022-06-28 21:44:00,,0830.3,5.01,0.00,29.0,27.1,00.0,37.7,30.8,15.3,0000.0,0008.32,0003.98,0003.47
2022-06-28 21:45:00,,0830.3,5.00,0.00,29.0,27.3,00.0,37.7,30.9,15.6,0000.0,0008.35,0003.98,0003.48
2022-06-28 21:46:00,,0830.3,4.98,0.00,29.0,27.5,00.0,37.7,30.9,15.2,0000.0,0008.28,0003.98,0003.48
2022-06-28 21:47:00,,0830.3,5.00,0.00,29.0,27.7,00.0,37.8,31.0,15.4,0000.0,0008.41,0004.00,0003.47
2022-06-28 21:48:00,,0830.2,5.00,0.00,29.1,28.0,00.0,37.8,31.1,15.4,0000.0,0008.94,0004.01,0003.46
2022-06-28 21:49:00,,0830.3,5.00,0.00,29.1,28.1,00.0,37.8,31.2,15.3,0000.0,0009.17,0004.01,0003.46
2022-06-28 21:50:00,,0830.2,4.99,0.00,29.1,27.8,00.0,37.8,31.1,16.0,0000.0,0008.88,0004.02,0003.45
2022-06-28 21:51:00,,0830.2,5.00,0.00,29.1,27.2,00.0,37.7,30.9,14.6,0000.0,0009.15,0004.02,0003.45
2022-06-28 21:52:00,,0830.2,4.99,0.00,29.0,27.1,00.0,37.7,30.8,14.6,0000.0,0009.75,0004.04,0003.43
2022-06-28 21:53:00,,0830.2,5.01,0.00,29.0,27.1,00.0,37.7,30.8,14.5,0000.0,0009.82,0004.03,0003.42
2022-06-28 21:54:00,,0830.1,5.00,0.00,29.0,27.3,00.0,37.7,30.9,14.4,0000.0,0010.28,0004.01,0003.41
2022-06-28 21:55:00,,0830.1,5.01,0.00,29.0,27.5,00.0,37.7,30.9,14.2,0000.0,0010.04,0004.00,0003.40
2022-06-28 21:56:00,,0830.2,5.00,0.00,29.0,27.7,00.0,37.8,31.0,14.6,0000.0,0009.83,0003.96,0003.39
2022-06-28 21:57:00,,0830.1,4.99,0.00,29.1,28.0,00.0,37.8,31.1,14.6,0000.0,0010.35,0003.95,0003.37
2022-06-28 21:58:00,,0830.1,5.00,0.00,29.1,28.1,00.0,37.8,31.2,14.3,0000.0,0011.19,0003.96,0003.37
2022-06-28 21:59:00,,0830.1,5.00,0.00,29.2,28.2,00.0,37.8,31.2,14.5,0000.0,0011.70,0003.96,0003.38
